Content
SEND FEEDBACK

Daily
Averages
Monthly
Summary
United States of America

CASTLE HAYNE, NORTH CAROLINA


Home > North America > United States > North Carolina
Elevation: 35 feet     Latitude: 34 19N     Longitude: 077 55W

WEATHER
 
SELECT A DAY
Number of Records: 213,178;   Date Range: 1/1/95 - 11/22/14
 
SHARE

PRINT THIS DATA

[ ← Previous Day ]
WEATHER ALMANAC - MAY 25, 2013
[ Next Day → ]
[ °C ]   °F
Weather ElementAverageHighLow
Temperature62 °F75 °F (4:53 pm)48.9 °F (5:53 am)
Dewpoint40.9 °F51.1 °F (11:53 pm)37 °F (11:53 am)
Humidity49.7 %81 % (11:53 pm)27 % (3:53 pm)
Barometer30.20 in30.29 in (9:53 am)30.14 in (4:53 pm)
Wind Speed6 mph11.5 mph (10:53 am)
Wind Gust20.7 mph (11:53 am)
Weather ElementAverage
Visibility10 mi
Wind DirectionSW (225.2 °)

Weather ElementTotal
Precipitation---
Heating Degree Days3.1 (Base 65)
Growing Degree Days12 (Base 50)
Averaged from 23 records on May 25, 2013
WEATHER CONDITIONS BREAKOUT
WIND DIRECTION BREAKOUT
WEATHER BY HOUR - MAY 25, 2013
[ °C ]   °F
Local TimeTemperatureDewpointHumidityBarometerVisibilityWind DirectionWind SpeedGust SpeedPrecipitationEventsConditions
1:53 AM55.0 °F39.0 °F55 %30.16 in10.0 miCalmClear
2:53 AM52.0 °F41.0 °F66 %30.17 in10.0 miNNW (340°)5.8 mphClear
3:53 AM50.0 °F41.0 °F71 %30.18 in10.0 miNW (320°)4.6 mphClear
4:53 AM50.0 °F39.9 °F68 %30.20 in10.0 miNNW (340°)5.8 mphClear
5:53 AM48.9 °F39.0 °F69 %30.21 in10.0 miNNW (340°)5.8 mphClear
6:53 AM50.0 °F41.0 °F71 %30.25 in10.0 miNorth (350°)3.5 mphClear
7:53 AM54.0 °F39.9 °F59 %30.26 in10.0 miNorth (10°)6.9 mphClear
8:53 AM57.0 °F41.0 °F55 %30.27 in10.0 miNNE (20°)6.9 mphClear
9:53 AM60.1 °F37.9 °F44 %30.29 in10.0 miNNW (330°)8.1 mphClear
10:53 AM63.0 °F37.9 °F40 %30.28 in10.0 miWNW (300°)11.5 mphClear
11:53 AM66.0 °F37.0 °F34 %30.26 in10.0 miNorth (350°)8.1 mph20.7 mphClear
12:53 PM68.0 °F39.0 °F35 %30.24 in10.0 miNNW (330°)9.2 mph17.3 mphClear
1:53 PM70.0 °F37.0 °F30 %30.22 in10.0 miWest (270°)8.1 mphClear
2:53 PM72.0 °F37.0 °F28 %30.19 in10.0 miWest (280°)9.2 mphClear
3:53 PM73.9 °F37.9 °F27 %30.16 in10.0 miWest (260°)9.2 mphClear
4:53 PM75.0 °F39.9 °F28 %30.14 in10.0 miWest (280°)8.1 mphClear
5:53 PM75.0 °F39.0 °F27 %30.14 in10.0 miWest (280°)9.2 mphClear
6:53 PM73.9 °F37.9 °F27 %30.15 in10.0 miWNW (290°)9.2 mphClear
7:53 PM71.1 °F39.9 °F32 %30.17 in10.0 miWest (280°)5.8 mphClear
8:53 PM64.0 °F48.0 °F56 %30.17 in10.0 miCalmClear
9:53 PM59.0 °F50.0 °F72 %30.19 in10.0 miCalmClear
10:53 PM60.1 °F48.9 °F67 %30.20 in10.0 miSSW (210°)3.5 mphClear
11:53 PM57.0 °F51.1 °F81 %30.19 in10.0 miCalmClear
Hourly data recorded from KILM, located miles away from Castle Hayne, North Carolina







STORIES FROM OUR PARTNERS